Regional Weather Roundup
Issued by NWS

Home | Current Version | Previous Version | Text Only | Print | Product List | Glossary On
Versions: 1 2 3 4 5 6 7 8 9 10 11 12 13 14 15 16 17 18 19 20 21 22 23 24 25 26 27 28 29 30 31 32 33 34 35 36 37 38 39 40 41 42 43 44 45 46 47 48 49 50
000
ASUS45 KREV 232210
RWRNV
NEVADA REGIONAL WEATHER ROUNDUP
NATIONAL WEATHER SERVICE RENO NV
300 PM PDT TUE SEP 23 2014

NOTE: "FAIR" INDICATES FEW OR NO CLOUDS BELOW 12,000 FEET WITH NO
SIGNIFICANT WEATHER AND/OR OBSTRUCTIONS TO VISIBILITY.

NVZ001-003-004-232300-
WESTERN NEVADA

CITY           SKY/WX    TMP DP  RH WIND       PRES   REMARKS
RENO           PTSUNNY   89  27  10 VRB7      30.03F
CARSON CITY    FAIR      84  25  11 W14G22    30.06F
MINDEN         FAIR      84  28  13 NE5       30.06
SLIDE MTN        N/A     57  34  41 W23         N/A
FALLON         PTSUNNY   91  32  12 N9        30.00F
LOVELOCK       FAIR      84  48  28 W5        30.01F
HAWTHORNE      SUNNY     90  32  12 N12       29.98F
$$

NVZ002-CAZ072-073-232300-
NORTHERN AND CENTRAL SIERRA

CITY           SKY/WX    TMP DP  RH WIND       PRES   REMARKS
S. LAKE TAHOE  FAIR      76  28  17 S15G25    30.18F
TRUCKEE        PTSUNNY   75  30  19 SW17G24   30.17F SMOKE
SQUAW VLY 8000 NOT AVBL
BLUE CANYON    PTSUNNY   70  39  32 S9G20     30.18F
MAMMOTH LAKES  FAIR      79  27  14 E13       30.24F
$$

NVZ030-031-036-232300-
NORTHERN NEVADA

CITY           SKY/WX    TMP DP  RH WIND       PRES   REMARKS
ELKO           FAIR      85  35  16 SW8G16    30.09F
WINNEMUCCA     FAIR      83  36  18 W13       30.03F
WENDOVER       FAIR      79  52  38 E5        30.11F
$$

NVZ035-037-232300-
CENTRAL NEVADA

CITY           SKY/WX    TMP DP  RH WIND       PRES   REMARKS
ELY            FAIR      78  36  21 S7        30.21F
EUREKA           N/A     80  38  22 S14       30.16F
$$

NVZ013-014-232300-
SOUTH CENTRAL NEVADA

CITY           SKY/WX    TMP DP  RH WIND       PRES   REMARKS
TONOPAH        FAIR      83  29  14 S13G21    30.15F
$$

NVZ017-020-022-232300-
SOUTHERN NEVADA

CITY           SKY/WX    TMP DP  RH WIND       PRES   REMARKS
LAS VEGAS      FAIR      95  34  11 VRB6      29.92F
N. LAS VEGAS   FAIR      94  30  10 E9        29.95F
NELLIS AFB     FAIR      94  34  12 VRB6      29.93F
HENDERSON      FAIR      96  36  12 NE10      29.98F
MERCURY        FAIR      91  30  11 W7        30.02F
$$


USA.gov is the U.S. government's official web portal to all federal, state and local government web resources and services.